Location: Granada
(37.1830°N, 3.6000°W)
Time: 02:08:11
(UTC+02:00)

Iridium 70 - Visible Passes

Search period start: 22 September 2014 00:00
Search period end: 02 October 2014 00:00
Orbit: 776 x 779 km, 86.4° (Epoch: 21 September)

Date Brightness Start Highest point End Pass type
(mag) Time Alt. Az. Time Alt. Az. Time Alt. Az.
22 Sep 9.1 07:13:48 10° NE 07:15:26 11° ENE 07:17:05 10° E visible
22 Sep 7.4 21:46:36 10° SW 21:51:11 31° W 21:55:47 10° NNW visible
23 Sep 6.2 21:12:25 10° SSW 21:17:32 60° W 21:22:41 10° N visible
24 Sep 5.5 20:38:51 10° S 20:44:01 72° E 20:49:13 10° N visible
24 Sep 8.8 22:23:46 10° W 22:25:16 11° WNW 22:26:48 10° WNW visible
25 Sep 8.7 07:12:24 10° NE 07:15:46 17° ENE 07:19:06 10° ESE visible
25 Sep 8.1 21:47:29 10° SW 21:51:25 22° WNW 21:55:22 10° NNW visible
26 Sep 7.0 21:12:50 10° SSW 21:17:42 40° W 21:22:35 10° NNW visible
27 Sep 5.8 20:38:55 10° S 20:44:06 77° W 20:49:19 10° N visible
28 Sep 8.1 07:11:47 10° NNE 07:16:02 25° E 07:20:15 10° SE visible
28 Sep 8.7 21:48:51 10° WSW 21:51:42 15° WNW 21:54:34 10° NW visible
29 Sep 8.9 06:39:46 10° NE 06:42:12 13° ENE 06:44:37 10° ESE visible
29 Sep 7.8 21:13:31 10° SW 21:17:54 27° W 21:22:19 10° NNW visible
30 Sep 6.5 20:39:11 10° SSW 20:44:14 52° W 20:49:18 10° N visible
01 Oct 7.3 07:11:27 10° NNE 07:16:15 36° E 07:21:00 10° SSE visible
